Overview Statistics Trail Chart Weather Telemetry Raw packets
 

This is the latest recevied weather packets stored in our database for station/object KJ6HT. If no packets are shown the sender has not sent any weather packets the latest 10 day(s).

<< 29 30 31 32 33 34 35 >>
Time Temp. Humidity Pressure Rain* Wind** Luminosity Snow
1787941820 36.67° C 36% 1009.9 hPa 0 mm - - -
1787940962 37.22° C 35% 1009.8 hPa 0 mm - - -
1787940041 36.11° C 38% 1009.8 hPa 0 mm - - -
1787939180 36.11° C 41% 1010.1 hPa 0 mm - - -
1787938216 36.11° C 43% 1010.2 hPa 0 mm - - -
1787937372 34.44° C 49% 1010.3 hPa 0 mm - - -
1787936424 33.33° C 50% 1010.3 hPa 0 mm - - -
1787935570 33.33° C 51% 1010.2 hPa 0 mm - - -
1787934630 32.22° C 55% 1010.3 hPa 0 mm - - -
1787933716 31.11° C 58% 1010.3 hPa 0 mm - - -
1787932881 30.56° C 62% 1010.3 hPa 0 mm - - -
1787931934 30° C 61% 1010.1 hPa 0 mm - - -
1787931097 28.89° C 66% 1010.1 hPa 0 mm - - -
1787930180 27.78° C 69% 1010.1 hPa 0 mm - - -
1787929232 27.78° C 70% 1010.2 hPa 0 mm - - -
1787928379 27.78° C 68% 1010 hPa 0 mm - - -
1787927464 27.78° C 69% 1009.8 hPa 0 mm - - -
1787926517 27.78° C 69% 1009.7 hPa 0 mm - - -
1787924729 25° C 79% 1009.5 hPa 0 mm - - -
1787923879 25° C 77% 1009.3 hPa 0 mm - - -
1787922969 25° C 78% 1009.1 hPa 0 mm - - -
1787922028 25° C 78% 1008.9 hPa 0 mm - - -
1787921176 25° C 78% 1008.8 hPa 0 mm - - -
1787920240 25.56° C 75% 1008.7 hPa 0 mm - - -
1787919323 25.56° C 78% 1008.7 hPa 0 mm - - -

* Rain latest hour (hover to see other rain measurements)
** Current wind speed in m/s (hover to see current wind gust speed)